Location: Unspecified
(54.1780°N, 0.0000°E)
Time: 21:25:34
(UTC+00:00)

Tiros 1 - Pass Details

Date: 23 June 2019
Orbit: 630 x 664 km, 48.4° (Epoch: 21 October)

Event Time Altitude Azimuth Distance (km) Brightness Sun altitude
Rises 22:34:10 0° 207° (SSW) 2,948 - -10.1°
Reaches altitude 10° 22:37:11 10° 187° (S) 2,034 - -10.3°
Exits shadow 22:37:52 12° 180° (S) 1,875 8.9 -10.3°
Maximum altitude 22:40:11 17° 147° (SSE) 1,609 8.6 -10.4°
Drops below altitude 10° 22:43:12 10° 107° (ESE) 2,026 9.4 -10.5°
Sets 22:46:11 0° 87° (E) 2,932 10.4 -10.7°
